Regional Weather Roundup
Issued by NWS Wakefield, VA

Home | Current Version | Previous Version | Text Only | Print | Product List | Glossary On
Versions: 1 2 3 4 5 6 7 8 9 10 11 12 13 14 15 16 17 18 19 20 21 22 23 24 25 26 27 28 29 30 31 32 33 34 35 36 37 38 39 40 41 42 43 44 45 46 47 48 49 50
000
ASUS41 KAKQ 192213
RWRAKQ

REGIONAL WEATHER ROUNDUP
NATIONAL WEATHER SERVICE WAKEFIELD VA
500 PM EST SUN NOV 19 2017

Note: "fair" indicates few or no clouds below 12,000 feet with no
significant weather and/or obstructions to visibility. * = Denotes
station may not report precipitation (e.g., rain,snow,etc.),
thunder or fog.

VAZ042-051-052>054-056-192300-
NORTHERN VIRGINIA

CITY           SKY/WX    TMP DP  RH WIND       PRES   REMARKS
WASH NATIONAL  CLOUDY    48  28  46 W17G28    29.84R
DULLES         CLOUDY    44  27  51 NW13G22   29.84R
FORT BELVOIR   MOCLDY    47  24  40 NW18G35   29.84R
QUANTICO       NOT AVBL
FREDERICKSBRG* PTCLDY    48  27  42 NW13G23   29.84R
STAFFORD*      CLOUDY    46  24  41 NW16G24   29.89R
WARRENTON      NOT AVBL
CULPEPER*      CLOUDY    47  22  36 NW5       29.86R
MANASSAS*      MOCLDY    45  25  45 NW9       29.85R
LEESBURG*      MOCLDY    45  30  57 NW13G18   29.84R
WINCHESTER     CLOUDY    41  27  56 W16       29.83R
FRONT ROYAL*   CLOUDY    43  25  49 MISG      29.83R
LURAY*         CLOUDY    43  27  52 SW9G16    29.84R
$$

VAZ048-049-060>072-079>083-192300-
CENTRAL AND SOUTH CENTRAL VIRGINIA

CITY           SKY/WX    TMP DP  RH WIND       PRES   REMARKS
RICHMOND       PTCLDY    53  26  35 NW13      29.82R
CHESTERFIELD*  NOT AVBL
PETERSBURG*    NOT AVBL
HANOVER        PTCLDY    50  26  39 NW10G17   29.84R
TAPPAHANNOCK*    N/A    N/A N/A N/A MISG        N/A
QUINTON*       FAIR      53  26  35 NW15      29.80R
CHARLOTTSVILLE MOCLDY    48  23  37 VRB5      29.86R
GORDONSVILLE*  CLOUDY    47  26  44 NW3       29.85R
ORANGE*        MOCLDY    45  27  49 NW8       29.85R
LOUISA*          N/A     47  24  40 NW13G22     N/A
BUMPASS*       MOCLDY    47  23  37 W8        29.84R
FARMVILLE*     PTCLDY    49  28  44 W6        29.86R
CREWE*         FAIR      50  27  40 W15G21    29.85R
FORT PICKETT*  NOT AVBL
CHASE CITY*    FAIR      47  29  48 W9G20     29.88R
CLARKSVILLE*   FAIR      48  28  46 NW15G22   29.89R
SOUTH HILL*    CLEAR     49  29  45 NW5       29.92R
LAWRENCEVILLE* FAIR      51  27  39 W7G20     29.85R
EMPORIA*       CLEAR     52  30  43 W13G21    29.85R
$$

VAZ088>098-192300-
SOUTHEAST VIRGINIA

CITY           SKY/WX    TMP DP  RH WIND       PRES   REMARKS
NORFOLK        CLEAR     56  28  34 VRB6      29.79R
VIRGINIA BEACH PTCLDY    54  27  35 NW13G20   29.78R
NORFOLK NAVAL  PTCLDY    55  28  35 NW15      29.81R
WEST POINT*    PTCLDY    53  24  32 NW5       29.82R
SALUDA*        FAIR      53  29  39 W6        29.79R
NEWPORT NEWS   CLEAR     53  26  35 N6        29.80R
LANGLEY AFB    CLEAR     54  28  36 NW8       29.79R
FORT EUSTIS    CLEAR     54  30  40 NW8       29.77R
WILLIAMSBURG*  CLEAR     54  34  47 CALM      29.80R
HR EXEC AP*    NOT AVBL
FRANKLIN*      CLEAR     52  29  42 W5        29.82R
US460-WAKEFLD  CLEAR     53  30  41 W5        29.81R
$$

VAZ020-022-025-037-045-192300-
WEST CENTRAL AND SOUTHWEST VIRGINIA

CITY           SKY/WX    TMP DP  RH WIND       PRES   REMARKS
STAUNTON*      CLOUDY    41  26  55 NW10G17   29.89R
WAYNESBORO*    CLOUDY    41  23  48 W6        29.86R
HOT SPRINGS VA CLOUDY    30  21  68 W18G33    29.80R WCI  18
LYNCHBURG      CLEAR     42  22  44 VRB7      29.90R
DANVILLE       PTCLDY    45  27  49 NW10G20   29.93R
SOUTH BOSTON*  FAIR      47  25  43 NW14G22   29.92R
MARTINSVILLE   PTCLDY    41  24  50 NW7       29.97R
ROANOKE        MOCLDY    42  24  49 NW18G25   29.95R
BLACKSBURG     CLOUDY    37  26  65 W14G23    29.95R
DUBLIN*        CLOUDY    38  27  65 NW21G30   29.95R
MARION*        CLOUDY    36  23  59 W16G24    29.98R
HILLSVILLE*    CLOUDY    34  23  63 NW15G28   29.91R WCI  24
RICHLANDS*     CLOUDY    33  26  73 W9        29.99R
WISE*          CLOUDY    34  30  86 W9        30.01R
ABINGDON*      CLOUDY    39  26  57 W10G18    30.01R
$$

MDZ021>025-VAZ099-100-192300-
SOUTHERN MARYLAND AND THE DELMARVA PENINSULA

CITY           SKY/WX    TMP DP  RH WIND       PRES   REMARKS
PATUXENT RIVER PTCLDY    48  28  46 NW22G32   29.81R
BAY BRIDGE APT CLOUDY    46  28  49 NW17G25   29.80R
LEONARDTOWN    CLEAR     46  27  46 NW8G17    29.82R
DOVER          PTCLDY    46  27  47 W16G23    29.75R
GEORGETOWN     CLEAR     48  27  44 NW10G22   29.77R
EASTON         MOCLDY    46  25  42 NW22G30   29.84R
CAMBRIDGE      CLEAR     46  25  42 NW18G29   29.80R
SALISBURY      CLEAR     47  28  47 NW13G24   29.78R
OCEAN CITY     CLEAR     48  30  49 NW13G29   29.77R
WALLOPS ISLAND CLEAR     48  29  47 NW15G22   29.78R
ACCOMACK*      CLEAR     50  33  52 NW12G20   29.78R
$$

NCZ012>017-030>032-192300-
NORTH CENTRAL AND EASTERN NORTH CAROLINA

CITY           SKY/WX    TMP DP  RH WIND       PRES   REMARKS
ROANOKE RAPIDS FAIR      54  32  43 NW9       29.84R
RALEIGH        PTCLDY    53  28  38 NW8G23    29.89R
ELIZABETH CITY CLEAR     53  34  48 W9        29.80R
AHOSKIE*       CLEAR     54  30  39 CALM      29.83R
EDENTON*       CLEAR     58  32  38 CALM      29.81R
CURRITUCK*     CLEAR     57  31  37 W5        29.79R
KILL DEVIL HLS CLEAR     56  41  56 W6        29.76R
MANTEO         CLEAR     56  40  55 NW8       29.79R
CAPE HATTERAS  CLEAR     58  43  57 NW9       29.79R
TARBORO*       NOT AVBL
GOLDSBORO      CLEAR     58  30  35 W13       29.84R
WASHINGTON     CLEAR     56  32  40 NW3       29.82R
GREENVILLE     CLEAR     55  30  38 NW8       29.86R
NEW BERN       CLEAR     55  35  47 NW8       29.84R
WILMINGTON     CLEAR     59  32  36 NW12      29.85R
$$

VAZ048-192300-
ELSEWHERE

CITY           SKY/WX    TMP DP  RH WIND       PRES   REMARKS
HARRISBURG PA  LGT RAIN  44  30  57 W18G29    29.75R
BALTIMORE      MOCLDY    45  27  49 W14       29.80R
ANNAPOLIS      NOT AVBL
ANDREWS AFB    CLOUDY    46  26  46 W20G25    29.81R
PHILADELPHIA   MOCLDY    48  24  39 W15G29    29.72R
HENDERSON NC   CLEAR     48  25  41 W7G21     29.88R
GREENSBORO     PTCLDY    47  26  44 NW12G22   29.92R
ROCKY MOUNT    CLEAR     55  30  38 W13G20    29.85R
$$

VAZ100-192300-
MARINE

STATION/POSITION TIME  TEMP    WIND        PRES    WAVE   SWELL
                       AIR SEA DIR/SP/G            HT/PER HT/PER
                 (UTC) (F)     (DEG/KT/KT) (MB)    (FT/S) (FT/S)
BRANDYWINE LGT   2142   49     310/ 32/ 38 1006.6R
CAPE MAY NJ      2148   49 51  310/ 23/ 30 1006.1R
LEWES DE         2148   49 54  300/ 28/ 33 1007.0R
15NM E FENWICK I 2150   51 59  290/ 27/ 31 1006.3R   6/ 6   2/10
OCEAN-CITY-INLET 2148   49 52  330/ 14/ 19 1008.0R
WACHAPREAGUE VA  2148   50 54  320/  3/  9 1008.2R
THOMAS POINT MD  2200   47 54  310/ 15/ 17   N/A
GOOSES REEF MD   2150   49     330/ 19/ 25   N/A
COVE POINT MD    2148   48     340/ 23/ 32 1009.9R
SOLOMONS ISLAND  2148   49 55  330/ 15/ 19 1009.0R
BISHOPS HEAD MD  2148   48 52     CALM     1009.5R
PINEY POINT MD   2148          360/ 22/ 24   N/A
POTOMAC MD       2150   51     340/ 19/ 25 1008.1R
CAMBRIDGE MD     2142   48 51              1009.9R
LEWISETTA VA     2148   50 54  340/ 14/ 23 1009.2R
RAPPAHANNOCK LGT 2148          320/ 25/ 27 1008.7R
STINGRAY PT      2150   53     360/ 14/ 17 1008.8R
YORK RVR RNG VA  2148   55     330/ 19/ 22 1009.2R
YORKTOWN VA      2148   55 55  320/ 17/ 19 1008.5R
JAMESTOWN VA     2150          330/ 10/ 12   N/A
DOMINION TERM VA 2148   56     330/ 12/ 15 1008.8R
KIPTOPEKE VA     2148      56  310/ 21/ 24   N/A
CAPE HENRY VA    2148   56     310/ 18/ 21   N/A
WILLOUBY STN VA  2142   56     310/ 18/ 20 1008.6R
S CRANEY ISL VA  2148   55     320/  7/ 11 1008.4R
CAPE HENRY BUOY  2200      60                N/A     4/ 5
1ST LANDING BUOY 2150   56     330/ 17/ 21 1008.3R
CAPE CHARLES BUO 2151      56                N/A     3/ 9
64NM E OF VA BCH 2150   57 61  320/ 19/ 23 1007.7R   8/ 7   2/14
DUCK PIER NC     2148   57 61  320/ 11/ 14 1007.9R
44100 DUCK FRF   2045      61                N/A     4/ 5
44056 DUCK FRF   2200      62                N/A     4/ 4
OREGON INLET NC  2142   57 58  280/ 10/ 14 1008.1R
HATTERAS NC      2148   60 61  330/ 16/ 20 1008.5R
DIAMOND SHLS NC  2200   61 65  320/ 16/ 21 1009.0
CAPE LOOKOUT NC  2200          320/ 15/ 17 1010.0R
$$



USA.gov is the U.S. government's official web portal to all federal, state and local government web resources and services.